Simultaneous Nadir Overpasses (SNOs) Predictions

Prediction of SNOs between AQUA and METOP-C Satellite Orbit:

Table of predicted SNOs for the next 14.0 days since TLE Epoch: 11/9/2024
Index Date (AQUA) Time (AQUA) Lat,Lon (AQUA) SZA (AQUA ) Date (METOP-C) Time (METOP-C) Lat,Lon (METOP-C) SZA (METOP-C ) Distance(km) Time Diff (sec)
1 11/11/2024 00:39:29 -75.85, -9.76 86.70 11/11/2024 00:39:07 -75.84, -9.85 86.71 2.80 22
2 11/11/2024 01:28:51 75.93, 157.67 93.39 11/11/2024 01:29:45 75.90, 157.69 93.37 2.91 54
3 11/13/2024 14:19:28 75.84, -34.66 93.98 11/13/2024 14:18:39 75.85, -34.71 93.99 1.64 49
4 11/13/2024 15:08:49 -75.90, 132.80 85.95 11/13/2024 15:09:20 -75.90, 132.80 85.95 0.14 31
5 11/16/2024 03:59:23 -75.86, -59.64 85.35 11/16/2024 03:58:14 -75.83, -59.67 85.39 3.47 69
6 11/16/2024 04:48:44 75.90, 107.90 94.70 11/16/2024 04:48:52 75.88, 107.85 94.69 2.08 8
7 11/18/2024 18:28:35 -75.91, 82.95 84.67 11/18/2024 18:28:26 -75.88, 82.97 84.70 3.37 9
8 11/18/2024 19:17:56 75.96,-109.53 95.38 11/18/2024 19:19:04 75.94,-109.51 95.37 2.53 68
9 11/21/2024 08:08:22 75.91, 58.06 95.91 11/21/2024 08:07:56 75.90, 58.15 95.90 2.79 26



Historial Predications of SNOs between AQUA and METOP-C
